When you browse on this site, cookies collect data to enhance your experience and personalize the content and advertising you see.
Visit our Privacy Policy to learn more. By continuing to use the site, you agree to this use of cookies and data.
  • In Portugal
  • List of Countries
  • For 7 days
  • Water Temperature
  • Weather Map
  • Weather Widgets
  • user-avatar
    Login

    Hourly Weather Makowica

    Today, 29 January, Wednesday

    Time Temperature Precipitation Wind Pressure Humidity
    00:00 +1°C° 0 mm 2 mps 706 mmHg 88%
    01:00 -1°C° 0 mm 4 mps 706 mmHg 88%
    02:00 -2°C° 0 mm 4 mps 706 mmHg 88%
    03:00 -2°C° 0 mm 4 mps 706 mmHg 88%
    04:00 -2°C° 0 mm 4 mps 706 mmHg 88%
    05:00 -2°C° 0 mm 4 mps 707 mmHg 87%
    06:00 -2°C° 0 mm 3 mps 707 mmHg 85%
    07:00 -4°C° 0 mm 3 mps 708 mmHg 85%
    08:00 -3°C° 0 mm 4 mps 708 mmHg 79%
    09:00 -2°C° 0 mm 5 mps 708 mmHg 73%
    10:00 -2°C° 0 mm 6 mps 708 mmHg 67%
    11:00 -2°C° 0.1 mm 6 mps 709 mmHg 66%
    12:00 -1°C° 0.1 mm 6 mps 709 mmHg 64%
    13:00 -1°C° 0.1 mm 6 mps 709 mmHg 62%
    14:00 0°C° 0 mm 5 mps 709 mmHg 67%
    15:00 -1°C° 0 mm 5 mps 709 mmHg 71%
    16:00 -2°C° 0 mm 4 mps 709 mmHg 76%
    17:00 -2°C° 0 mm 4 mps 709 mmHg 79%
    18:00 -2°C° 0 mm 4 mps 710 mmHg 82%
    19:00 -3°C° 0 mm 4 mps 710 mmHg 85%
    20:00 -3°C° 0 mm 4 mps 711 mmHg 87%
    21:00 -3°C° 0 mm 4 mps 711 mmHg 88%
    22:00 -3°C° 0 mm 4 mps 711 mmHg 90%
    23:00 -3°C° 0 mm 4 mps 711 mmHg 90%

    Tomorrow, 30 January, Thursday

    Time Temperature Precipitation Wind Pressure Humidity
    00:00 -3°C° 0 mm 4 mps 712 mmHg 91%
    01:00 -3°C° 0 mm 4 mps 712 mmHg 91%
    02:00 -3°C° 0.1 mm 4 mps 713 mmHg 91%
    03:00 -3°C° 0.1 mm 4 mps 713 mmHg 92%
    04:00 -3°C° 0.1 mm 4 mps 713 mmHg 92%
    05:00 -3°C° 0.1 mm 4 mps 713 mmHg 92%
    06:00 -3°C° 0.1 mm 4 mps 714 mmHg 92%
    07:00 -4°C° 0.1 mm 5 mps 714 mmHg 93%
    08:00 -2°C° 0 mm 5 mps 714 mmHg 87%
    09:00 -2°C° 0 mm 5 mps 715 mmHg 81%
    10:00 -1°C° 0 mm 5 mps 715 mmHg 75%
    11:00 0°C° 0 mm 5 mps 715 mmHg 71%
    12:00 0°C° 0 mm 5 mps 715 mmHg 67%
    13:00 +1°C° 0 mm 5 mps 715 mmHg 63%
    14:00 0°C° 0 mm 4 mps 714 mmHg 68%
    15:00 +1°C° 0 mm 3 mps 714 mmHg 73%
    16:00 0°C° 0 mm 3 mps 714 mmHg 78%
    17:00 0°C° 0.1 mm 3 mps 714 mmHg 81%
    18:00 0°C° 0.1 mm 3 mps 714 mmHg 85%
    19:00 0°C° 0.1 mm 3 mps 713 mmHg 88%
    20:00 0°C° 0 mm 3 mps 713 mmHg 88%
    21:00 0°C° 0 mm 3 mps 713 mmHg 88%
    22:00 0°C° 0 mm 3 mps 713 mmHg 88%
    23:00 0°C° 0 mm 3 mps 712 mmHg 87%

    Day after tomorrow, 31 January, Friday

    Time Temperature Precipitation Wind Pressure Humidity
    00:00 0°C° 0 mm 3 mps 712 mmHg 86%
    01:00 0°C° 0 mm 3 mps 712 mmHg 85%
    02:00 0°C° 0 mm 3 mps 711 mmHg 84%
    03:00 0°C° 0 mm 3 mps 711 mmHg 83%
    04:00 0°C° 0 mm 3 mps 710 mmHg 82%
    05:00 0°C° 0.1 mm 3 mps 709 mmHg 82%
    06:00 +1°C° 0.1 mm 3 mps 709 mmHg 82%
    07:00 +1°C° 0.1 mm 4 mps 708 mmHg 83%
    08:00 +1°C° 0.9 mm 4 mps 708 mmHg 85%
    09:00 +3°C° 0.9 mm 4 mps 708 mmHg 88%
    10:00 +4°C° 0.9 mm 4 mps 707 mmHg 91%
    11:00 +3°C° 0.7 mm 5 mps 708 mmHg 89%
    12:00 +5°C° 0.7 mm 5 mps 708 mmHg 88%
    13:00 +4°C° 0.7 mm 6 mps 709 mmHg 86%
    14:00 +4°C° 0.2 mm 6 mps 709 mmHg 84%
    15:00 +4°C° 0.2 mm 6 mps 710 mmHg 82%
    16:00 +5°C° 0.2 mm 5 mps 710 mmHg 80%
    17:00 +3°C° 0 mm 5 mps 711 mmHg 81%
    18:00 +3°C° 0 mm 5 mps 712 mmHg 83%
    19:00 +3°C° 0 mm 5 mps 713 mmHg 85%
    20:00 +3°C° 0 mm 4 mps 713 mmHg 86%
    21:00 +3°C° 0 mm 4 mps 714 mmHg 87%
    22:00 +3°C° 0 mm 3 mps 714 mmHg 88%
    23:00 +2°C° 0 mm 3 mps 714 mmHg 89%

    1 February, Saturday

    Time Temperature Precipitation Wind Pressure Humidity
    00:00 +2°C° 0 mm 3 mps 714 mmHg 89%
    01:00 +3°C° 0 mm 2 mps 715 mmHg 89%
    02:00 +3°C° 0 mm 2 mps 714 mmHg 88%
    03:00 +2°C° 0 mm 2 mps 714 mmHg 88%
    04:00 +2°C° 0 mm 2 mps 714 mmHg 87%
    05:00 +2°C° 0 mm 2 mps 714 mmHg 87%
    06:00 +2°C° 0 mm 2 mps 714 mmHg 87%
    07:00 +2°C° 0 mm 2 mps 714 mmHg 87%
    08:00 +3°C° 0 mm 2 mps 714 mmHg 85%
    09:00 +5°C° 0 mm 2 mps 714 mmHg 82%
    10:00 +5°C° 0 mm 3 mps 715 mmHg 79%
    11:00 +7°C° 0 mm 3 mps 714 mmHg 77%
    12:00 +8°C° 0 mm 3 mps 714 mmHg 75%
    13:00 +9°C° 0 mm 3 mps 714 mmHg 72%
    14:00 +8°C° 0 mm 3 mps 713 mmHg 76%
    15:00 +7°C° 0 mm 3 mps 713 mmHg 80%
    16:00 +7°C° 0 mm 3 mps 712 mmHg 84%
    17:00 +5°C° 0 mm 3 mps 712 mmHg 84%
    18:00 +5°C° 0 mm 3 mps 712 mmHg 84%
    19:00 +4°C° 0 mm 3 mps 711 mmHg 85%
    20:00 +5°C° 0.4 mm 3 mps 711 mmHg 86%
    21:00 +5°C° 0.4 mm 3 mps 711 mmHg 87%
    22:00 +5°C° 0.4 mm 3 mps 710 mmHg 88%
    23:00 +5°C° 0.5 mm 4 mps 710 mmHg 89%

    2 February, Sunday

    Time Temperature Precipitation Wind Pressure Humidity
    00:00 +5°C° 0.5 mm 4 mps 711 mmHg 90%
    01:00 +5°C° 0.5 mm 4 mps 711 mmHg 91%
    02:00 +4°C° 0.9 mm 4 mps 711 mmHg 88%
    03:00 +3°C° 0.9 mm 5 mps 712 mmHg 85%
    04:00 +2°C° 0.9 mm 5 mps 712 mmHg 83%
    05:00 +2°C° 0 mm 5 mps 713 mmHg 82%
    06:00 +1°C° 0 mm 4 mps 714 mmHg 82%
    07:00 0°C° 0 mm 4 mps 714 mmHg 82%
    08:00 +1°C° 0 mm 5 mps 715 mmHg 80%
    09:00 +1°C° 0 mm 5 mps 715 mmHg 78%
    10:00 +1°C° 0 mm 6 mps 716 mmHg 77%
    11:00 +2°C° 0 mm 7 mps 716 mmHg 76%
    12:00 +2°C° 0 mm 7 mps 716 mmHg 76%
    13:00 +2°C° 0 mm 7 mps 717 mmHg 76%
    14:00 +1°C° 0 mm 6 mps 717 mmHg 80%
    15:00 +1°C° 0 mm 6 mps 717 mmHg 84%
    16:00 +1°C° 0 mm 5 mps 717 mmHg 88%
    17:00 0°C° 0 mm 4 mps 717 mmHg 88%
    18:00 0°C° 0 mm 4 mps 718 mmHg 87%
    19:00 +1°C° 0 mm 3 mps 718 mmHg 87%
    20:00 +1°C° 0 mm 3 mps 718 mmHg 85%
    21:00 +1°C° 0 mm 3 mps 718 mmHg 84%
    22:00 +1°C° 0 mm 3 mps 718 mmHg 83%
    23:00 0°C° 0 mm 3 mps 718 mmHg 83%

    3 February, Monday

    Time Temperature Precipitation Wind Pressure Humidity
    00:00 0°C° 0 mm 3 mps 718 mmHg 83%
    01:00 0°C° 0 mm 3 mps 717 mmHg 82%
    02:00 +1°C° 0.1 mm 3 mps 717 mmHg 84%
    03:00 +1°C° 0.1 mm 3 mps 717 mmHg 86%
    04:00 +2°C° 0.1 mm 3 mps 716 mmHg 88%
    05:00 +2°C° 0.1 mm 3 mps 716 mmHg 88%
    06:00 +3°C° 0.1 mm 3 mps 716 mmHg 87%
    07:00 +4°C° 0.1 mm 4 mps 716 mmHg 87%
    08:00 +4°C° 0.1 mm 4 mps 716 mmHg 86%
    09:00 +5°C° 0.1 mm 5 mps 716 mmHg 85%
    10:00 +4°C° 0.1 mm 6 mps 717 mmHg 83%
    11:00 +5°C° 0.1 mm 6 mps 717 mmHg 79%
    12:00 +5°C° 0.1 mm 7 mps 717 mmHg 76%
    13:00 +5°C° 0.1 mm 7 mps 717 mmHg 72%
    14:00 +5°C° 0.1 mm 6 mps 718 mmHg 75%
    15:00 +5°C° 0.1 mm 5 mps 718 mmHg 78%
    16:00 +5°C° 0.1 mm 4 mps 718 mmHg 81%
    17:00 +4°C° 0 mm 3 mps 718 mmHg 83%
    18:00 +5°C° 0 mm 2 mps 719 mmHg 86%
    19:00 +4°C° 0 mm 2 mps 719 mmHg 88%
    20:00 +4°C° 0 mm 2 mps 719 mmHg 89%
    21:00 +3°C° 0 mm 2 mps 719 mmHg 89%
    22:00 +3°C° 0 mm 2 mps 719 mmHg 89%
    23:00 +3°C° 0.3 mm 2 mps 718 mmHg 89%
    Show more